Weather History for Birmingham, AL

Change the Weather History Date:

Tuesday, January 14, 2014

  Actual Average Record
Temperature  
Mean Temperature 49 °F 44 °F  
Max Temperature 59 °F 53 °F 78 °F (1932)
Min Temperature 38 °F 34 °F 13 °F (1963)
Degree Days  
Heating Degree Days 16 22  
Month to date heating degree days 358 301  
Since 1 July heating degree days 1441 1348  
Moisture  
Dew Point 41 °F    
Average Humidity 63    
Maximum Humidity 93    
Minimum Humidity 33    
Precipitation  
Precipitation 0.04 in 0.15 in 1.20 in (2013)
Month to date precipitation 1.47 2.05  
Year to date precipitation 1.47 2.05  
Snow  
Snow 0.00 in 0.00 in - ()
Month to date snowfall 0.0 0.2  
Since 1 July snowfall 0.0 0.3  
Snow Depth 0.00 in    
Sea Level Pressure  
Sea Level Pressure 29.98 in    
Wind  
Wind Speed 6 mph (WNW)    
Max Wind Speed 17 mph    
Max Gust Speed 26 mph    
Visibility 9 miles    
Events Rain    
T = Trace of Precipitation, MM = Missing Value Source: NWS Daily Summary

Daily Weather History Graph

Daily Weather History Graph

Search for Another Location

Airport:

Trip Planner

Search our weather history database for the weather conditions in past years. The results will help you decide how hot, cold, wet, or windy it might be!

Date:

Astronomy

Jan. 14, 2014 Rise Set
Actual Time 6:51 AM CST 5:01 PM CST
Civil Twilight 6:24 AM CST 5:28 PM CST
Nautical Twilight 5:53 AM CST 5:58 PM CST
Astronomical Twilight 5:23 AM CST 6:28 PM CST
Moon 4:04 PM CST (1/14) 5:26 AM CST (1/14)
Length of Visible Light 11h 03m
Length of Day
10h 09m
Waxing Gibbous, 98% of the Moon is Illuminated
Jan 14
Waxing Gibbous
Jan 15
Full
Jan 23
Last Quarter
Jan 30
New
Feb 6
First Quarter

Hourly Weather History & Observations

Time (CST) Temp. Windchill Dew Point Humidity Pressure Visibility Wind Dir Wind Speed Gust Speed Precip Events Conditions
12:25 AM 53.6 °F - 51.8 °F 94% 29.86 in 5.0 mi WSW 6.9 mph - 0.01 in Rain Light Rain
12:53 AM 53.1 °F - 51.1 °F 93% 29.87 in 5.0 mi West 18.4 mph 26.5 mph 0.02 in Rain Light Rain
1:03 AM 53.6 °F - 50.0 °F 88% 29.87 in 9.0 mi WNW 15.0 mph 23.0 mph 0.00 in Rain Light Rain
1:35 AM 51.8 °F - 48.2 °F 88% 29.89 in 10.0 mi WNW 8.1 mph - 0.01 in   Overcast
1:37 AM 51.8 °F - 50.0 °F 94% 29.89 in 8.0 mi NW 11.5 mph - 0.01 in Rain Light Rain
1:53 AM 52.0 °F - 50.0 °F 93% 29.90 in 10.0 mi NW 6.9 mph - 0.02 in Rain Light Rain
2:21 AM 51.8 °F - 50.0 °F 94% 29.89 in 10.0 mi NNW 10.4 mph - 0.00 in   Overcast
2:53 AM 51.1 °F - 48.9 °F 92% 29.91 in 10.0 mi WNW 9.2 mph - 0.00 in   Overcast
3:13 AM 51.8 °F - 48.2 °F 88% 29.91 in 10.0 mi NW 11.5 mph - N/A   Overcast
3:45 AM 50.0 °F - 48.2 °F 94% 29.91 in 10.0 mi WNW 8.1 mph - N/A   Mostly Cloudy
3:53 AM 50.0 °F - 46.9 °F 89% 29.92 in 10.0 mi WNW 9.2 mph - N/A   Mostly Cloudy
4:32 AM 48.2 °F - 46.4 °F 93% 29.94 in 10.0 mi WNW 8.1 mph - N/A   Mostly Cloudy
4:53 AM 48.0 °F - 46.0 °F 93% 29.95 in 10.0 mi WNW 9.2 mph 16.1 mph N/A   Mostly Cloudy
5:41 AM 46.4 °F 41.9 °F 44.6 °F 93% 29.97 in 10.0 mi NW 9.2 mph - N/A   Overcast
5:53 AM 46.9 °F - 44.1 °F 90% 29.97 in 10.0 mi NW 6.9 mph - N/A   Overcast
6:11 AM 46.4 °F 43.5 °F 42.8 °F 87% 29.98 in 10.0 mi NW 5.8 mph - N/A   Mostly Cloudy
6:34 AM 44.6 °F 42.2 °F 42.8 °F 93% 29.99 in 10.0 mi NW 4.6 mph - N/A   Scattered Clouds
6:53 AM 44.1 °F 42.5 °F 42.1 °F 93% 30.00 in 10.0 mi West 3.5 mph - N/A   Partly Cloudy
7:42 AM 44.6 °F 40.2 °F 42.8 °F 93% 30.02 in 7.0 mi WNW 8.1 mph - N/A   Mostly Cloudy
7:53 AM 44.1 °F 40.1 °F 42.1 °F 93% 30.02 in 7.0 mi WNW 6.9 mph - N/A   Mostly Cloudy
8:53 AM 45.0 °F 42.6 °F 42.1 °F 90% 30.05 in 7.0 mi NW 4.6 mph - N/A   Mostly Cloudy
9:47 AM 48.2 °F - 44.6 °F 87% 30.06 in 10.0 mi North 3.5 mph - N/A   Scattered Clouds
9:53 AM 48.9 °F - 43.0 °F 80% 30.06 in 10.0 mi Calm Calm - N/A   Scattered Clouds
10:53 AM 53.1 °F - 39.0 °F 59% 30.04 in 10.0 mi Calm Calm - N/A   Clear
11:53 AM 55.9 °F - 34.0 °F 44% 30.01 in 10.0 mi NNW 5.8 mph - N/A   Clear
12:53 PM 57.9 °F - 30.9 °F 36% 29.98 in 10.0 mi WNW 9.2 mph - N/A   Clear
1:53 PM 57.9 °F - 28.0 °F 32% 30.00 in 10.0 mi WNW 9.2 mph - N/A   Clear
2:53 PM 59.0 °F - 30.0 °F 33% 30.00 in 10.0 mi WSW 8.1 mph - N/A   Clear
3:53 PM 57.9 °F - 28.9 °F 33% 30.01 in 10.0 mi SW 5.8 mph - N/A   Clear
4:53 PM 55.9 °F - 30.0 °F 37% 30.01 in 10.0 mi WSW 6.9 mph - N/A   Clear
5:53 PM 52.0 °F - 30.9 °F 45% 30.02 in 10.0 mi SSW 4.6 mph - N/A   Clear
6:53 PM 48.0 °F - 32.0 °F 54% 30.04 in 10.0 mi SSW 4.6 mph - N/A   Clear
7:53 PM 48.0 °F - 32.0 °F 54% 30.05 in 10.0 mi Calm Calm - N/A   Clear
8:53 PM 42.1 °F - 34.0 °F 73% 30.06 in 10.0 mi Calm Calm - N/A   Partly Cloudy
9:53 PM 39.9 °F - 34.0 °F 79% 30.05 in 10.0 mi Calm Calm - N/A   Partly Cloudy
10:53 PM 39.9 °F - 33.1 °F 77% 30.04 in 10.0 mi Calm Calm - N/A   Partly Cloudy
11:53 PM 46.0 °F 42.5 °F 32.0 °F 58% 30.04 in 10.0 mi WNW 6.9 mph - N/A   Scattered Clouds